Location: *
(41.7492°S, 135.4150°W)
Time: 19:17:44
(UTC+00:00)

Cosmos 2297 Rocket - Pass Details

Date: 20 September 2021
Orbit: 841 x 842 km, 71.0° (Epoch: 16 October)

Event Time Altitude Azimuth Distance (km) Brightness Sun altitude
Exits shadow 12:34:31 11° 215° (SW) 2,394 4.4 -26.1°
Drops below altitude 10° 12:35:44 10° 203° (SSW) 2,493 4.6 -25.9°
Sets 12:40:14 0° 170° (S) 3,436 5.8 -25.1°
